Location: Staunton
(38.1490°N, 79.0720°W)
Time: 14:56:06

ISS - Pass Details

Date: 23 March 2018
Orbit: 403 x 406 km, 51.6° (Epoch: 23 March)

Event Time Altitude Azimuth Distance (km) Brightness Sun altitude
Rises 20:08:15 0° 196° (SSW) 2,306 0.1 -8.1°
Reaches altitude 10° 20:10:43 10° 176° (S) 1,452 -1.1 -8.6°
Maximum altitude 20:13:03 18° 130° (SE) 1,056 -2.2 -9.0°
Enters shadow 20:14:40 14° 95° (E) 1,266 -2.0 -9.3°
